Time,TemperatureF,DewpointF,PressureIn,WindDirection,WindDirectionDegrees,WindSpeedMPH,WindSpeedGustMPH,Humidity,HourlyPrecipIn,Conditions,Clouds,dailyrainin,SoftwareType,DateUTC
2013-05-28 00:01:00,50.5,49.4,30.07,SE,136,2.0,3.0,96,0.05,,,0.00,Wunderground v.1.15,2013-05-28 04:01:00,
2013-05-28 00:06:00,50.6,49.5,30.07,ENE,76,0.0,4.0,96,0.05,,,0.00,Wunderground v.1.15,2013-05-28 04:06:00,
2013-05-28 00:11:00,50.5,49.4,30.07,ENE,68,2.0,4.0,96,0.05,,,0.00,Wunderground v.1.15,2013-05-28 04:11:00,
2013-05-28 00:16:00,50.5,49.4,30.06,East,97,6.0,7.0,96,0.00,,,0.00,Wunderground v.1.15,2013-05-28 04:16:00,
2013-05-28 00:21:00,50.4,49.3,30.06,ENE,59,2.0,3.0,96,0.00,,,0.01,Wunderground v.1.15,2013-05-28 04:21:00,
2013-05-28 00:26:00,50.4,49.3,30.06,East,86,0.0,3.0,96,0.00,,,0.01,Wunderground v.1.15,2013-05-28 04:26:00,
2013-05-28 00:31:00,50.5,49.4,30.06,ENE,78,2.0,3.0,96,0.00,,,0.01,Wunderground v.1.15,2013-05-28 04:31:00,
2013-05-28 00:36:00,50.5,49.4,30.05,East,89,2.0,5.0,96,0.00,,,0.01,Wunderground v.1.15,2013-05-28 04:36:00,
2013-05-28 00:41:00,50.5,49.4,30.06,East,89,3.0,3.0,96,0.00,,,0.01,Wunderground v.1.15,2013-05-28 04:41:00,
2013-05-28 00:46:00,50.5,49.4,30.06,East,83,1.0,5.0,96,0.00,,,0.01,Wunderground v.1.15,2013-05-28 04:46:00,
2013-05-28 00:51:00,50.4,49.3,30.06,ENE,72,0.0,3.0,96,0.00,,,0.01,Wunderground v.1.15,2013-05-28 04:51:00,
2013-05-28 00:56:00,50.5,49.4,30.05,ENE,69,2.0,4.0,96,0.00,,,0.01,Wunderground v.1.15,2013-05-28 04:56:00,
2013-05-28 01:01:00,50.4,49.3,30.05,East,79,1.0,2.0,96,0.00,,,0.01,Wunderground v.1.15,2013-05-28 05:01:00,
2013-05-28 01:06:00,50.4,49.3,30.05,ENE,78,1.0,4.0,96,0.00,,,0.01,Wunderground v.1.15,2013-05-28 05:06:00,
2013-05-28 01:11:00,50.5,49.4,30.04,ENE,71,0.0,4.0,96,0.00,,,0.01,Wunderground v.1.15,2013-05-28 05:11:00,
2013-05-28 01:16:00,50.5,49.4,30.04,ENE,70,1.0,4.0,96,0.00,,,0.01,Wunderground v.1.15,2013-05-28 05:16:00,
2013-05-28 01:21:00,50.5,49.4,30.03,East,80,2.0,4.0,96,0.00,,,0.01,Wunderground v.1.15,2013-05-28 05:21:00,
2013-05-28 01:26:00,50.5,49.7,30.03,NE,55,1.0,5.0,97,0.00,,,0.01,Wunderground v.1.15,2013-05-28 05:26:00,
2013-05-28 01:31:00,50.6,49.8,30.03,ENE,74,1.0,2.0,97,0.00,,,0.01,Wunderground v.1.15,2013-05-28 05:31:00,
2013-05-28 01:36:00,50.6,49.8,30.03,ENE,74,4.0,6.0,97,0.00,,,0.01,Wunderground v.1.15,2013-05-28 05:36:00,
2013-05-28 01:41:00,50.6,49.8,30.03,ENE,71,3.0,3.0,97,0.00,,,0.01,Wunderground v.1.15,2013-05-28 05:41:00,
2013-05-28 01:46:00,50.7,49.9,30.03,ENE,64,5.0,5.0,97,0.00,,,0.01,Wunderground v.1.15,2013-05-28 05:46:00,
2013-05-28 01:51:00,50.7,49.9,30.03,ESE,108,3.0,5.0,97,0.00,,,0.01,Wunderground v.1.15,2013-05-28 05:51:00,
2013-05-28 01:56:00,50.8,50.0,30.03,ESE,108,3.0,5.0,97,0.00,,,0.01,Wunderground v.1.15,2013-05-28 05:56:00,
2013-05-28 02:01:00,50.8,50.0,30.03,East,92,2.0,2.0,97,0.00,,,0.01,Wunderground v.1.15,2013-05-28 06:01:00,
2013-05-28 02:06:00,50.8,50.0,30.03,ENE,68,0.0,3.0,97,0.00,,,0.01,Wunderground v.1.15,2013-05-28 06:06:00,
2013-05-28 02:11:00,50.9,50.1,30.03,ENE,61,3.0,5.0,97,0.00,,,0.01,Wunderground v.1.15,2013-05-28 06:11:00,
2013-05-28 02:16:00,50.9,50.1,30.03,ENE,61,0.0,5.0,97,0.00,,,0.01,Wunderground v.1.15,2013-05-28 06:16:00,
2013-05-28 02:21:00,51.0,50.2,30.02,ENE,61,1.0,2.0,97,0.00,,,0.01,Wunderground v.1.15,2013-05-28 06:21:00,
2013-05-28 02:26:00,51.0,50.2,30.02,East,86,2.0,3.0,97,0.00,,,0.01,Wunderground v.1.15,2013-05-28 06:26:00,
2013-05-28 02:31:00,51.1,50.3,30.01,SW,234,1.0,3.0,97,0.00,,,0.01,Wunderground v.1.15,2013-05-28 06:31:00,
2013-05-28 02:36:00,51.1,50.3,30.02,ENE,69,0.0,4.0,97,0.00,,,0.01,Wunderground v.1.15,2013-05-28 06:36:00,
2013-05-28 02:40:00,51.2,50.4,30.02,ENE,71,1.0,3.0,97,0.00,,,0.01,Wunderground v.1.15,2013-05-28 06:40:00,
2013-05-28 02:45:00,51.2,50.4,30.02,ENE,57,0.0,3.0,97,0.00,,,0.01,Wunderground v.1.15,2013-05-28 06:45:00,
2013-05-28 02:50:00,51.2,50.4,30.01,East,97,1.0,2.0,97,0.00,,,0.01,Wunderground v.1.15,2013-05-28 06:50:00,
2013-05-28 02:55:00,51.3,50.5,30.01,ESE,120,0.0,5.0,97,0.00,,,0.01,Wunderground v.1.15,2013-05-28 06:55:00,
2013-05-28 03:00:00,51.3,50.5,30.01,ENE,65,3.0,3.0,97,0.00,,,0.01,Wunderground v.1.15,2013-05-28 07:00:00,
2013-05-28 03:05:00,51.3,50.5,30.01,ENE,63,0.0,3.0,97,0.00,,,0.01,Wunderground v.1.15,2013-05-28 07:05:00,
2013-05-28 03:10:00,51.3,50.5,30.01,ESE,102,0.0,1.0,97,0.00,,,0.01,Wunderground v.1.15,2013-05-28 07:10:00,
2013-05-28 03:15:00,51.3,50.5,30.01,NE,55,2.0,3.0,97,0.00,,,0.01,Wunderground v.1.15,2013-05-28 07:15:00,
2013-05-28 03:20:00,51.4,50.6,30.00,ENE,66,1.0,4.0,97,0.00,,,0.01,Wunderground v.1.15,2013-05-28 07:20:00,
2013-05-28 03:25:00,51.4,50.6,30.00,NE,55,1.0,4.0,97,0.00,,,0.01,Wunderground v.1.15,2013-05-28 07:25:00,
2013-05-28 03:30:00,51.4,50.6,30.00,NE,55,1.0,2.0,97,0.00,,,0.01,Wunderground v.1.15,2013-05-28 07:30:00,
2013-05-28 03:35:00,51.4,50.6,29.99,East,100,1.0,5.0,97,0.00,,,0.01,Wunderground v.1.15,2013-05-28 07:35:00,
2013-05-28 03:40:00,51.4,50.6,29.99,East,82,3.0,3.0,97,0.00,,,0.01,Wunderground v.1.15,2013-05-28 07:40:00,
2013-05-28 03:45:00,51.4,50.6,29.99,East,96,0.0,5.0,97,0.00,,,0.01,Wunderground v.1.15,2013-05-28 07:45:00,
2013-05-28 03:50:00,51.4,50.6,29.99,ESE,106,1.0,2.0,97,0.00,,,0.02,Wunderground v.1.15,2013-05-28 07:50:00,
2013-05-28 03:55:00,51.5,50.7,29.99,ENE,64,2.0,3.0,97,0.00,,,0.02,Wunderground v.1.15,2013-05-28 07:55:00,
2013-05-28 04:00:00,51.5,50.7,29.99,ENE,64,1.0,2.0,97,0.00,,,0.02,Wunderground v.1.15,2013-05-28 08:00:00,
2013-05-28 04:05:00,51.5,50.7,29.99,ENE,64,2.0,3.0,97,0.00,,,0.02,Wunderground v.1.15,2013-05-28 08:05:00,
2013-05-28 04:10:00,51.5,50.7,29.99,ENE,57,1.0,2.0,97,0.00,,,0.02,Wunderground v.1.15,2013-05-28 08:10:00,
2013-05-28 04:15:00,51.5,50.7,29.99,ENE,57,1.0,3.0,97,0.00,,,0.02,Wunderground v.1.15,2013-05-28 08:15:00,
2013-05-28 04:20:00,51.5,50.7,29.99,ENE,57,2.0,4.0,97,0.00,,,0.02,Wunderground v.1.15,2013-05-28 08:20:00,
2013-05-28 04:25:00,51.6,50.8,29.99,ENE,63,1.0,4.0,97,0.00,,,0.02,Wunderground v.1.15,2013-05-28 08:25:00,
2013-05-28 04:30:00,51.6,50.8,29.99,SSW,196,1.0,2.0,97,0.17,,,0.04,Wunderground v.1.15,2013-05-28 08:30:00,
2013-05-28 04:35:00,51.6,50.8,29.98,ENE,69,2.0,3.0,97,0.07,,,0.04,Wunderground v.1.15,2013-05-28 08:35:00,
2013-05-28 04:40:00,51.6,50.8,29.98,ENE,69,0.0,1.0,97,0.04,,,0.04,Wunderground v.1.15,2013-05-28 08:40:00,
2013-05-28 04:45:00,51.7,50.9,29.98,ENE,69,1.0,2.0,97,0.00,,,0.04,Wunderground v.1.15,2013-05-28 08:45:00,
2013-05-28 04:50:00,51.7,50.9,29.98,South,176,0.0,1.0,97,0.00,,,0.04,Wunderground v.1.15,2013-05-28 08:50:00,
2013-05-28 04:55:00,51.7,50.9,29.98,ENE,78,0.0,2.0,97,0.00,,,0.04,Wunderground v.1.15,2013-05-28 08:55:00,
2013-05-28 05:00:00,51.7,50.9,29.98,ENE,78,0.0,0.0,97,0.00,,,0.04,Wunderground v.1.15,2013-05-28 09:00:00,
2013-05-28 05:05:00,51.8,51.0,29.99,ENE,78,2.0,2.0,97,0.00,,,0.04,Wunderground v.1.15,2013-05-28 09:05:00,
2013-05-28 05:10:00,51.8,51.0,29.98,ENE,78,1.0,2.0,97,0.00,,,0.04,Wunderground v.1.15,2013-05-28 09:10:00,
2013-05-28 05:15:00,51.8,51.0,29.99,ENE,71,0.0,3.0,97,0.00,,,0.04,Wunderground v.1.15,2013-05-28 09:15:00,
2013-05-28 05:20:00,51.8,51.0,29.99,ENE,71,1.0,1.0,97,0.00,,,0.04,Wunderground v.1.15,2013-05-28 09:20:00,
2013-05-28 05:25:00,51.9,51.1,29.99,ENE,71,0.0,1.0,97,0.00,,,0.04,Wunderground v.1.15,2013-05-28 09:25:00,
2013-05-28 05:30:00,51.9,51.1,29.99,SSE,161,2.0,2.0,97,0.00,,,0.04,Wunderground v.1.15,2013-05-28 09:30:00,
2013-05-28 05:35:00,51.9,51.1,29.99,ENE,69,1.0,2.0,97,0.00,,,0.04,Wunderground v.1.15,2013-05-28 09:35:00,
2013-05-28 05:40:00,51.9,51.1,29.99,ENE,61,0.0,1.0,97,0.00,,,0.04,Wunderground v.1.15,2013-05-28 09:40:00,
2013-05-28 05:45:00,52.0,51.2,29.99,ENE,75,0.0,3.0,97,0.00,,,0.04,Wunderground v.1.15,2013-05-28 09:45:00,
2013-05-28 05:50:00,52.0,51.2,29.99,ENE,75,2.0,2.0,97,0.00,,,0.04,Wunderground v.1.15,2013-05-28 09:50:00,
2013-05-28 05:55:00,52.0,51.2,29.99,ENE,75,1.0,2.0,97,0.00,,,0.04,Wunderground v.1.15,2013-05-28 09:55:00,
2013-05-28 06:00:00,52.0,51.2,29.99,ENE,75,0.0,1.0,97,0.00,,,0.04,Wunderground v.1.15,2013-05-28 10:00:00,
2013-05-28 06:05:00,52.0,51.2,29.99,ENE,75,2.0,2.0,97,0.00,,,0.04,Wunderground v.1.15,2013-05-28 10:05:00,
2013-05-28 06:10:00,52.1,51.3,29.99,ENE,75,0.0,0.0,97,0.00,,,0.04,Wunderground v.1.15,2013-05-28 10:10:00,
2013-05-28 06:15:00,52.1,51.3,29.99,ENE,75,1.0,1.0,97,0.00,,,0.04,Wunderground v.1.15,2013-05-28 10:15:00,
2013-05-28 06:20:00,52.1,51.3,29.99,ENE,75,1.0,2.0,97,0.00,,,0.04,Wunderground v.1.15,2013-05-28 10:20:00,
2013-05-28 06:25:00,52.2,51.4,29.99,ENE,75,0.0,2.0,97,0.00,,,0.04,Wunderground v.1.15,2013-05-28 10:25:00,
2013-05-28 06:30:00,52.2,51.4,29.99,ENE,75,0.0,1.0,97,0.00,,,0.04,Wunderground v.1.15,2013-05-28 10:30:00,
2013-05-28 06:35:00,52.2,51.4,30.00,ENE,75,0.0,1.0,97,0.00,,,0.04,Wunderground v.1.15,2013-05-28 10:35:00,
2013-05-28 06:40:00,52.3,51.5,30.00,ENE,75,0.0,0.0,97,0.00,,,0.04,Wunderground v.1.15,2013-05-28 10:40:00,
2013-05-28 06:45:00,52.3,51.5,29.99,ENE,75,0.0,2.0,97,0.00,,,0.04,Wunderground v.1.15,2013-05-28 10:45:00,
2013-05-28 06:50:00,52.3,51.5,30.00,ENE,75,0.0,1.0,97,0.00,,,0.04,Wunderground v.1.15,2013-05-28 10:50:00,
2013-05-28 06:55:00,52.4,51.6,30.00,ENE,75,1.0,1.0,97,0.00,,,0.04,Wunderground v.1.15,2013-05-28 10:55:00,
2013-05-28 07:00:00,52.4,51.6,30.00,ENE,75,0.0,1.0,97,0.00,,,0.04,Wunderground v.1.15,2013-05-28 11:00:00,
2013-05-28 07:05:00,52.5,51.7,30.00,ENE,75,0.0,1.0,97,0.00,,,0.04,Wunderground v.1.15,2013-05-28 11:05:00,
2013-05-28 07:10:00,52.6,51.8,30.00,ENE,75,0.0,0.0,97,0.00,,,0.04,Wunderground v.1.15,2013-05-28 11:10:00,
2013-05-28 07:15:00,52.6,51.8,30.01,ENE,75,0.0,1.0,97,0.00,,,0.04,Wunderground v.1.15,2013-05-28 11:15:00,
2013-05-28 07:20:00,52.6,51.8,30.00,ENE,75,0.0,0.0,97,0.00,,,0.04,Wunderground v.1.15,2013-05-28 11:20:00,
2013-05-28 07:25:00,52.7,51.9,30.00,ENE,75,1.0,1.0,97,0.00,,,0.04,Wunderground v.1.15,2013-05-28 11:25:00,
2013-05-28 07:30:00,52.8,52.0,29.99,ENE,75,0.0,1.0,97,0.00,,,0.04,Wunderground v.1.15,2013-05-28 11:30:00,
2013-05-28 07:35:00,53.0,52.2,29.99,ENE,75,0.0,1.0,97,0.00,,,0.04,Wunderground v.1.15,2013-05-28 11:35:00,
2013-05-28 07:40:00,53.1,52.3,29.99,ENE,75,0.0,0.0,97,0.00,,,0.04,Wunderground v.1.15,2013-05-28 11:40:00,
2013-05-28 07:45:00,53.2,52.4,30.00,ENE,75,0.0,1.0,97,0.00,,,0.04,Wunderground v.1.15,2013-05-28 11:45:00,
2013-05-28 07:50:00,53.3,52.5,30.00,ENE,75,0.0,0.0,97,0.00,,,0.04,Wunderground v.1.15,2013-05-28 11:50:00,
2013-05-28 07:55:00,53.3,52.5,30.00,ENE,75,0.0,1.0,97,0.00,,,0.04,Wunderground v.1.15,2013-05-28 11:55:00,
2013-05-28 08:00:00,53.3,52.5,30.00,ENE,75,1.0,1.0,97,0.00,,,0.04,Wunderground v.1.15,2013-05-28 12:00:00,
2013-05-28 08:05:00,53.4,52.6,30.00,ENE,75,0.0,1.0,97,0.00,,,0.04,Wunderground v.1.15,2013-05-28 12:05:00,
2013-05-28 08:10:00,53.5,52.7,30.00,ENE,75,0.0,0.0,97,0.00,,,0.04,Wunderground v.1.15,2013-05-28 12:10:00,
2013-05-28 08:15:00,53.5,52.7,30.00,ESE,104,0.0,2.0,97,0.00,,,0.04,Wunderground v.1.15,2013-05-28 12:15:00,
2013-05-28 08:20:00,53.6,52.8,30.00,SSW,210,0.0,0.0,97,0.00,,,0.04,Wunderground v.1.15,2013-05-28 12:20:00,
2013-05-28 08:25:00,53.7,52.9,30.01,SSW,210,0.0,1.0,97,0.00,,,0.04,Wunderground v.1.15,2013-05-28 12:25:00,
2013-05-28 08:30:00,53.6,52.8,30.01,SSW,210,0.0,0.0,97,0.00,,,0.04,Wunderground v.1.15,2013-05-28 12:30:00,
2013-05-28 08:35:00,53.7,52.9,30.01,SSW,210,0.0,2.0,97,0.00,,,0.04,Wunderground v.1.15,2013-05-28 12:35:00,
2013-05-28 08:40:00,53.7,52.9,30.01,SSW,210,1.0,1.0,97,0.00,,,0.04,Wunderground v.1.15,2013-05-28 12:40:00,
2013-05-28 08:45:00,53.7,52.9,30.01,SSW,210,0.0,2.0,97,0.00,,,0.05,Wunderground v.1.15,2013-05-28 12:45:00,
2013-05-28 08:50:00,53.7,52.9,30.00,SSW,210,0.0,0.0,97,0.08,,,0.06,Wunderground v.1.15,2013-05-28 12:50:00,
2013-05-28 08:55:00,53.7,52.9,29.99,SSW,210,1.0,2.0,97,0.11,,,0.07,Wunderground v.1.15,2013-05-28 12:55:00,
2013-05-28 09:00:00,53.7,52.9,29.97,South,178,1.0,1.0,97,0.16,,,0.08,Wunderground v.1.15,2013-05-28 13:00:00,
2013-05-28 09:05:00,53.8,53.0,30.00,SW,215,0.0,3.0,97,0.11,,,0.09,Wunderground v.1.15,2013-05-28 13:05:00,
2013-05-28 09:10:00,53.9,53.1,29.99,SW,215,0.0,1.0,97,0.09,,,0.09,Wunderground v.1.15,2013-05-28 13:10:00,
2013-05-28 09:15:00,53.9,53.1,29.99,SW,215,0.0,2.0,97,0.06,,,0.10,Wunderground v.1.15,2013-05-28 13:15:00,
2013-05-28 09:20:00,53.9,53.1,29.97,ESE,110,1.0,3.0,97,0.06,,,0.10,Wunderground v.1.15,2013-05-28 13:20:00,
2013-05-28 09:25:00,54.0,53.2,29.97,ESE,110,1.0,2.0,97,0.19,,,0.12,Wunderground v.1.15,2013-05-28 13:25:00,
2013-05-28 09:30:00,54.0,53.4,29.97,ESE,110,1.0,2.0,98,0.09,,,0.12,Wunderground v.1.15,2013-05-28 13:30:00,
2013-05-28 09:35:00,54.1,53.5,29.97,ESE,110,1.0,2.0,98,0.07,,,0.13,Wunderground v.1.15,2013-05-28 13:35:00,
2013-05-28 09:40:00,54.2,53.6,29.97,ESE,110,1.0,2.0,98,0.07,,,0.13,Wunderground v.1.15,2013-05-28 13:40:00,
2013-05-28 09:45:00,54.4,53.6,29.96,ESE,110,0.0,2.0,97,0.05,,,0.13,Wunderground v.1.15,2013-05-28 13:45:00,
2013-05-28 09:50:00,54.5,53.7,29.96,ESE,110,0.0,3.0,97,0.00,,,0.13,Wunderground v.1.15,2013-05-28 13:50:00,
2013-05-28 09:55:00,54.7,54.1,29.95,ESE,108,2.0,3.0,98,0.00,,,0.14,Wunderground v.1.15,2013-05-28 13:55:00,
2013-05-28 10:00:00,55.0,54.4,29.96,South,188,5.0,5.0,98,0.00,,,0.14,Wunderground v.1.15,2013-05-28 14:00:00,
2013-05-28 10:05:00,55.2,54.6,29.96,SSW,206,1.0,4.0,98,0.00,,,0.14,Wunderground v.1.15,2013-05-28 14:05:00,
2013-05-28 10:10:00,55.3,54.7,29.96,SSW,205,0.0,4.0,98,0.00,,,0.14,Wunderground v.1.15,2013-05-28 14:10:00,
2013-05-28 10:15:00,55.3,54.7,29.97,ESE,123,2.0,6.0,98,0.00,,,0.14,Wunderground v.1.15,2013-05-28 14:15:00,
2013-05-28 10:20:00,55.4,54.8,29.97,ESE,123,0.0,6.0,98,0.00,,,0.14,Wunderground v.1.15,2013-05-28 14:20:00,
2013-05-28 10:25:00,55.5,54.9,30.00,ESE,123,0.0,1.0,98,0.00,,,0.14,Wunderground v.1.15,2013-05-28 14:25:00,
2013-05-28 10:30:00,55.6,55.0,30.01,North,9,2.0,5.0,98,0.00,,,0.14,Wunderground v.1.15,2013-05-28 14:30:00,
2013-05-28 10:35:00,55.7,55.1,30.01,North,355,4.0,5.0,98,0.00,,,0.14,Wunderground v.1.15,2013-05-28 14:35:00,
2013-05-28 10:40:00,55.7,55.1,30.01,NNW,347,1.0,5.0,98,0.82,,,0.17,Wunderground v.1.15,2013-05-28 14:40:00,
2013-05-28 10:45:00,55.8,55.2,29.99,NNE,13,0.0,3.0,98,0.36,,,0.20,Wunderground v.1.15,2013-05-28 14:45:00,
2013-05-28 10:50:00,55.9,55.3,30.00,North,355,2.0,3.0,98,0.38,,,0.23,Wunderground v.1.15,2013-05-28 14:50:00,
2013-05-28 10:55:00,55.9,55.3,29.98,East,85,2.0,5.0,98,0.63,,,0.30,Wunderground v.1.15,2013-05-28 14:55:00,
2013-05-28 11:00:00,55.9,55.3,29.99,East,85,1.0,5.0,98,0.11,,,0.30,Wunderground v.1.15,2013-05-28 15:00:00,
2013-05-28 11:05:00,56.0,55.4,29.99,NNE,22,2.0,2.0,98,0.06,,,0.30,Wunderground v.1.15,2013-05-28 15:05:00,
2013-05-28 11:10:00,56.1,55.5,29.99,ENE,57,1.0,5.0,98,0.04,,,0.31,Wunderground v.1.15,2013-05-28 15:10:00,
2013-05-28 11:14:00,56.2,55.6,29.99,ENE,57,0.0,3.0,98,0.04,,,0.31,Wunderground v.1.15,2013-05-28 15:14:00,
2013-05-28 11:19:00,56.2,55.6,29.99,ENE,57,1.0,3.0,98,0.04,,,0.31,Wunderground v.1.15,2013-05-28 15:19:00,
2013-05-28 11:24:00,56.3,55.7,29.99,ESE,115,0.0,2.0,98,0.04,,,0.31,Wunderground v.1.15,2013-05-28 15:24:00,
2013-05-28 11:29:00,56.3,55.7,29.98,ESE,115,1.0,2.0,98,0.00,,,0.31,Wunderground v.1.15,2013-05-28 15:29:00,
2013-05-28 11:34:00,56.4,55.8,29.98,ESE,115,1.0,2.0,98,0.00,,,0.31,Wunderground v.1.15,2013-05-28 15:34:00,
2013-05-28 11:39:00,56.5,55.9,29.98,ESE,114,1.0,2.0,98,0.00,,,0.31,Wunderground v.1.15,2013-05-28 15:39:00,
2013-05-28 11:44:00,56.6,56.0,29.98,ESE,114,1.0,2.0,98,0.00,,,0.31,Wunderground v.1.15,2013-05-28 15:44:00,
2013-05-28 11:49:00,56.6,56.0,29.97,ESE,114,2.0,2.0,98,0.00,,,0.31,Wunderground v.1.15,2013-05-28 15:49:00,
2013-05-28 11:54:00,56.7,56.1,29.97,ESE,103,0.0,3.0,98,0.00,,,0.31,Wunderground v.1.15,2013-05-28 15:54:00,
2013-05-28 11:59:00,56.8,56.2,29.97,ENE,69,2.0,4.0,98,0.00,,,0.31,Wunderground v.1.15,2013-05-28 15:59:00,
2013-05-28 12:04:00,57.0,56.4,29.97,SSW,192,1.0,5.0,98,0.00,,,0.31,Wunderground v.1.15,2013-05-28 16:04:00,
2013-05-28 12:09:00,57.5,56.9,29.96,East,97,3.0,5.0,98,0.00,,,0.31,Wunderground v.1.15,2013-05-28 16:09:00,
2013-05-28 12:14:00,58.0,57.4,29.95,East,97,3.0,3.0,98,0.00,,,0.31,Wunderground v.1.15,2013-05-28 16:14:00,
2013-05-28 12:19:00,58.5,57.9,29.95,SE,135,1.0,3.0,98,0.00,,,0.31,Wunderground v.1.15,2013-05-28 16:19:00,
2013-05-28 12:24:00,59.2,58.6,29.95,SE,126,3.0,4.0,98,0.00,,,0.31,Wunderground v.1.15,2013-05-28 16:24:00,
2013-05-28 12:29:00,59.5,58.9,29.95,SW,232,2.0,4.0,98,0.00,,,0.31,Wunderground v.1.15,2013-05-28 16:29:00,
2013-05-28 12:34:00,59.6,59.0,29.95,SE,140,1.0,2.0,98,0.00,,,0.31,Wunderground v.1.15,2013-05-28 16:34:00,
2013-05-28 12:39:00,59.7,59.1,29.94,SE,136,1.0,3.0,98,0.00,,,0.31,Wunderground v.1.15,2013-05-28 16:39:00,
2013-05-28 12:44:00,59.8,59.2,29.94,SE,136,1.0,2.0,98,0.00,,,0.31,Wunderground v.1.15,2013-05-28 16:44:00,
2013-05-28 12:49:00,60.1,59.5,29.94,East,90,0.0,3.0,98,0.00,,,0.31,Wunderground v.1.15,2013-05-28 16:49:00,
2013-05-28 12:54:00,60.2,59.6,29.94,East,87,3.0,3.0,98,0.00,,,0.31,Wunderground v.1.15,2013-05-28 16:54:00,
2013-05-28 12:59:00,60.4,59.8,29.95,SE,126,2.0,4.0,98,0.00,,,0.31,Wunderground v.1.15,2013-05-28 16:59:00,
2013-05-28 13:04:00,60.6,60.0,29.95,NE,39,2.0,3.0,98,0.00,,,0.31,Wunderground v.1.15,2013-05-28 17:04:00,
2013-05-28 13:09:00,60.9,60.3,29.94,NE,44,0.0,3.0,98,0.00,,,0.31,Wunderground v.1.15,2013-05-28 17:09:00,
2013-05-28 13:14:00,61.1,60.5,29.94,SW,217,1.0,4.0,98,0.00,,,0.31,Wunderground v.1.15,2013-05-28 17:14:00,
2013-05-28 13:19:00,61.1,60.5,29.94,SSW,213,0.0,4.0,98,0.00,,,0.31,Wunderground v.1.15,2013-05-28 17:19:00,
2013-05-28 13:24:00,61.3,60.7,29.94,SSW,213,1.0,2.0,98,0.00,,,0.31,Wunderground v.1.15,2013-05-28 17:24:00,
2013-05-28 13:29:00,61.4,60.8,29.94,ESE,120,1.0,3.0,98,0.00,,,0.31,Wunderground v.1.15,2013-05-28 17:29:00,
2013-05-28 13:34:00,61.5,60.9,29.94,SE,146,0.0,2.0,98,0.00,,,0.31,Wunderground v.1.15,2013-05-28 17:34:00,
2013-05-28 13:39:00,61.7,61.1,29.94,ENE,68,1.0,3.0,98,0.00,,,0.31,Wunderground v.1.15,2013-05-28 17:39:00,
2013-05-28 13:44:00,62.0,61.4,29.94,SSE,155,1.0,2.0,98,0.00,,,0.31,Wunderground v.1.15,2013-05-28 17:44:00,
2013-05-28 13:49:00,62.1,61.5,29.94,SSE,155,1.0,2.0,98,0.00,,,0.31,Wunderground v.1.15,2013-05-28 17:49:00,
2013-05-28 13:54:00,62.3,61.7,29.94,SSE,154,2.0,2.0,98,0.00,,,0.31,Wunderground v.1.15,2013-05-28 17:54:00,
2013-05-28 13:59:00,62.5,61.9,29.93,SSE,154,0.0,2.0,98,0.00,,,0.31,Wunderground v.1.15,2013-05-28 17:59:00,
2013-05-28 14:04:00,62.7,62.1,29.93,SSE,154,0.0,2.0,98,0.00,,,0.31,Wunderground v.1.15,2013-05-28 18:04:00,
2013-05-28 14:09:00,62.9,62.3,29.93,SSE,154,0.0,2.0,98,0.00,,,0.31,Wunderground v.1.15,2013-05-28 18:09:00,
2013-05-28 14:14:00,63.0,62.4,29.92,SSE,154,1.0,2.0,98,0.00,,,0.31,Wunderground v.1.15,2013-05-28 18:14:00,
2013-05-28 14:19:00,63.1,62.5,29.92,SSE,154,0.0,2.0,98,0.00,,,0.31,Wunderground v.1.15,2013-05-28 18:19:00,
2013-05-28 14:24:00,63.2,62.6,29.91,SSE,154,1.0,3.0,98,0.00,,,0.31,Wunderground v.1.15,2013-05-28 18:24:00,
2013-05-28 14:29:00,63.2,62.6,29.91,WNW,294,0.0,3.0,98,0.00,,,0.31,Wunderground v.1.15,2013-05-28 18:29:00,
2013-05-28 14:34:00,63.3,62.7,29.91,NNE,32,1.0,3.0,98,0.00,,,0.31,Wunderground v.1.15,2013-05-28 18:34:00,
2013-05-28 14:39:00,63.4,62.8,29.91,NNE,32,1.0,3.0,98,0.00,,,0.31,Wunderground v.1.15,2013-05-28 18:39:00,
2013-05-28 14:44:00,63.3,62.7,29.92,NNE,32,2.0,2.0,98,0.00,,,0.31,Wunderground v.1.15,2013-05-28 18:44:00,
2013-05-28 14:49:00,63.4,62.8,29.91,NNE,32,1.0,2.0,98,0.00,,,0.31,Wunderground v.1.15,2013-05-28 18:49:00,
2013-05-28 14:54:00,63.5,62.9,29.91,NNE,32,1.0,1.0,98,0.00,,,0.31,Wunderground v.1.15,2013-05-28 18:54:00,
2013-05-28 14:59:00,63.5,62.9,29.91,NE,40,2.0,3.0,98,0.00,,,0.32,Wunderground v.1.15,2013-05-28 18:59:00,
2013-05-28 15:04:00,63.8,63.2,29.91,NE,40,0.0,1.0,98,0.00,,,0.32,Wunderground v.1.15,2013-05-28 19:04:00,
2013-05-28 15:09:00,64.0,63.4,29.91,NE,40,0.0,1.0,98,0.00,,,0.32,Wunderground v.1.15,2013-05-28 19:09:00,
2013-05-28 15:14:00,64.1,63.5,29.91,NE,40,0.0,2.0,98,0.00,,,0.32,Wunderground v.1.15,2013-05-28 19:14:00,
2013-05-28 15:19:00,64.2,63.6,29.91,NE,40,0.0,2.0,98,0.00,,,0.32,Wunderground v.1.15,2013-05-28 19:19:00,
2013-05-28 15:24:00,64.3,63.7,29.91,NE,40,0.0,1.0,98,0.00,,,0.32,Wunderground v.1.15,2013-05-28 19:24:00,
2013-05-28 15:29:00,64.2,63.6,29.91,NE,40,0.0,2.0,98,0.00,,,0.32,Wunderground v.1.15,2013-05-28 19:29:00,
2013-05-28 15:34:00,64.2,63.6,29.91,NE,40,0.0,1.0,98,0.00,,,0.32,Wunderground v.1.15,2013-05-28 19:34:00,
2013-05-28 15:39:00,64.3,63.7,29.91,NE,40,1.0,2.0,98,0.00,,,0.32,Wunderground v.1.15,2013-05-28 19:39:00,
2013-05-28 15:44:00,64.3,63.7,29.91,NE,40,1.0,2.0,98,0.00,,,0.32,Wunderground v.1.15,2013-05-28 19:44:00,
2013-05-28 15:49:00,64.1,63.5,29.93,NW,309,0.0,4.0,98,0.56,,,0.35,Wunderground v.1.15,2013-05-28 19:49:00,
2013-05-28 15:54:00,64.0,63.1,29.92,NW,310,1.0,2.0,97,0.61,,,0.48,Wunderground v.1.15,2013-05-28 19:54:00,
2013-05-28 15:59:00,63.9,63.0,29.92,North,9,2.0,4.0,97,1.99,,,0.61,Wunderground v.1.15,2013-05-28 19:59:00,
2013-05-28 16:04:00,63.8,62.9,29.92,North,11,0.0,7.0,97,0.69,,,0.73,Wunderground v.1.15,2013-05-28 20:04:00,
2013-05-28 16:09:00,63.7,62.8,29.91,ENE,57,1.0,7.0,97,0.40,,,0.76,Wunderground v.1.15,2013-05-28 20:09:00,
2013-05-28 16:14:00,63.9,63.0,29.91,ENE,57,0.0,3.0,97,0.38,,,0.82,Wunderground v.1.15,2013-05-28 20:14:00,
2013-05-28 16:19:00,64.0,63.4,29.91,ENE,57,0.0,3.0,98,0.09,,,0.82,Wunderground v.1.15,2013-05-28 20:19:00,
2013-05-28 16:24:00,64.2,63.6,29.91,ENE,57,0.0,2.0,98,0.05,,,0.82,Wunderground v.1.15,2013-05-28 20:24:00,
2013-05-28 16:29:00,64.4,63.5,29.92,ENE,57,0.0,2.0,97,0.04,,,0.82,Wunderground v.1.15,2013-05-28 20:29:00,
2013-05-28 16:34:00,64.8,64.2,29.91,ENE,57,1.0,2.0,98,0.00,,,0.82,Wunderground v.1.15,2013-05-28 20:34:00,
2013-05-28 16:39:00,65.5,64.9,29.90,ENE,57,0.0,2.0,98,0.00,,,0.82,Wunderground v.1.15,2013-05-28 20:39:00,
2013-05-28 16:44:00,66.7,66.1,29.90,ENE,57,1.0,2.0,98,0.00,,,0.82,Wunderground v.1.15,2013-05-28 20:44:00,
2013-05-28 16:49:00,67.6,67.0,29.90,North,355,1.0,4.0,98,0.00,,,0.82,Wunderground v.1.15,2013-05-28 20:49:00,
2013-05-28 16:54:00,67.5,66.9,29.90,North,355,0.0,3.0,98,0.00,,,0.82,Wunderground v.1.15,2013-05-28 20:54:00,
2013-05-28 16:59:00,68.3,67.7,29.90,North,355,0.0,3.0,98,0.00,,,0.82,Wunderground v.1.15,2013-05-28 20:59:00,
2013-05-28 17:04:00,68.4,67.8,29.90,North,355,0.0,1.0,98,0.00,,,0.82,Wunderground v.1.15,2013-05-28 21:04:00,
2013-05-28 17:09:00,68.1,67.5,29.89,North,355,0.0,2.0,98,0.00,,,0.82,Wunderground v.1.15,2013-05-28 21:09:00,
2013-05-28 17:14:00,68.2,67.6,29.89,North,355,0.0,1.0,98,0.00,,,0.82,Wunderground v.1.15,2013-05-28 21:14:00,
2013-05-28 17:19:00,68.2,67.6,29.89,North,355,0.0,1.0,98,0.00,,,0.82,Wunderground v.1.15,2013-05-28 21:19:00,
2013-05-28 17:24:00,68.4,67.8,29.89,North,355,0.0,1.0,98,0.00,,,0.82,Wunderground v.1.15,2013-05-28 21:24:00,
2013-05-28 17:29:00,68.5,67.9,29.89,North,355,0.0,1.0,98,0.00,,,0.82,Wunderground v.1.15,2013-05-28 21:29:00,
2013-05-28 17:34:00,68.6,68.0,29.89,North,355,0.0,1.0,98,0.00,,,0.82,Wunderground v.1.15,2013-05-28 21:34:00,
2013-05-28 17:39:00,68.7,68.1,29.89,North,355,1.0,2.0,98,0.00,,,0.82,Wunderground v.1.15,2013-05-28 21:39:00,
2013-05-28 17:44:00,68.6,68.0,29.89,NE,51,0.0,2.0,98,0.00,,,0.82,Wunderground v.1.15,2013-05-28 21:44:00,
2013-05-28 17:49:00,68.6,68.0,29.89,NE,51,0.0,2.0,98,0.00,,,0.82,Wunderground v.1.15,2013-05-28 21:49:00,
2013-05-28 17:54:00,68.7,68.1,29.88,NE,51,1.0,2.0,98,0.00,,,0.82,Wunderground v.1.15,2013-05-28 21:54:00,
2013-05-28 17:59:00,68.7,67.8,29.88,NE,51,1.0,3.0,97,0.00,,,0.82,Wunderground v.1.15,2013-05-28 21:59:00,
2013-05-28 18:04:00,68.6,67.7,29.88,NE,51,0.0,3.0,97,0.00,,,0.82,Wunderground v.1.15,2013-05-28 22:04:00,
2013-05-28 18:09:00,68.4,67.5,29.88,NE,51,1.0,3.0,97,0.00,,,0.82,Wunderground v.1.15,2013-05-28 22:09:00,
2013-05-28 18:14:00,68.3,67.4,29.89,NE,51,0.0,2.0,97,0.00,,,0.83,Wunderground v.1.15,2013-05-28 22:14:00,
2013-05-28 18:19:00,68.4,67.5,29.89,NE,51,0.0,2.0,97,1.12,,,0.89,Wunderground v.1.15,2013-05-28 22:19:00,
2013-05-28 18:24:00,68.3,67.1,29.88,NE,51,1.0,3.0,96,0.47,,,0.96,Wunderground v.1.15,2013-05-28 22:24:00,
2013-05-28 18:29:00,68.1,66.9,29.88,NE,51,1.0,3.0,96,0.12,,,0.97,Wunderground v.1.15,2013-05-28 22:29:00,
2013-05-28 18:34:00,68.1,66.9,29.88,NE,51,1.0,3.0,96,0.11,,,0.98,Wunderground v.1.15,2013-05-28 22:34:00,
2013-05-28 18:39:00,68.0,67.1,29.87,East,88,2.0,5.0,97,0.14,,,0.99,Wunderground v.1.15,2013-05-28 22:39:00,
2013-05-28 18:44:00,67.8,66.9,29.86,SSE,156,2.0,5.0,97,0.09,,,0.99,Wunderground v.1.15,2013-05-28 22:44:00,
2013-05-28 18:49:00,67.8,66.9,29.89,NNW,331,6.0,6.0,97,0.08,,,1.00,Wunderground v.1.15,2013-05-28 22:49:00,
2013-05-28 18:54:00,67.7,66.8,29.89,NNE,30,0.0,6.0,97,0.06,,,1.00,Wunderground v.1.15,2013-05-28 22:54:00,
2013-05-28 18:59:00,67.8,66.9,29.88,NNE,23,1.0,6.0,97,0.04,,,1.00,Wunderground v.1.15,2013-05-28 22:59:00,
2013-05-28 19:04:00,67.9,67.0,29.89,NNE,23,0.0,2.0,97,0.00,,,1.00,Wunderground v.1.15,2013-05-28 23:04:00,
2013-05-28 19:09:00,68.0,67.1,29.89,NNE,23,0.0,2.0,97,0.00,,,1.00,Wunderground v.1.15,2013-05-28 23:09:00,
2013-05-28 19:14:00,68.1,67.2,29.88,NNE,23,1.0,2.0,97,0.00,,,1.00,Wunderground v.1.15,2013-05-28 23:14:00,
2013-05-28 19:19:00,68.3,67.4,29.88,ENE,72,1.0,3.0,97,0.00,,,1.00,Wunderground v.1.15,2013-05-28 23:19:00,
2013-05-28 19:24:00,68.3,67.4,29.88,ENE,72,0.0,1.0,97,0.00,,,1.00,Wunderground v.1.15,2013-05-28 23:24:00,
2013-05-28 19:29:00,68.3,67.4,29.88,ENE,72,0.0,2.0,97,0.00,,,1.00,Wunderground v.1.15,2013-05-28 23:29:00,
2013-05-28 19:34:00,68.4,67.5,29.88,ENE,72,0.0,2.0,97,0.00,,,1.00,Wunderground v.1.15,2013-05-28 23:34:00,
2013-05-28 19:39:00,68.4,67.5,29.88,ENE,72,1.0,2.0,97,0.00,,,1.00,Wunderground v.1.15,2013-05-28 23:39:00,
2013-05-28 19:44:00,68.4,67.5,29.88,ENE,73,0.0,0.0,97,0.00,,,1.00,Wunderground v.1.15,2013-05-28 23:44:00,
2013-05-28 19:49:00,68.4,67.5,29.88,ENE,73,0.0,1.0,97,0.00,,,1.00,Wunderground v.1.15,2013-05-28 23:49:00,
2013-05-28 19:54:00,68.5,67.6,29.88,ENE,74,1.0,1.0,97,0.00,,,1.00,Wunderground v.1.15,2013-05-28 23:54:00,
2013-05-28 19:59:00,68.6,67.7,29.88,ENE,74,0.0,1.0,97,0.00,,,1.00,Wunderground v.1.15,2013-05-28 23:59:00,
2013-05-28 20:04:00,68.6,67.7,29.87,ENE,74,1.0,1.0,97,0.00,,,1.00,Wunderground v.1.15,2013-05-29 00:04:00,
2013-05-28 20:09:00,68.5,67.6,29.87,ENE,74,0.0,1.0,97,0.00,,,1.00,Wunderground v.1.15,2013-05-29 00:09:00,
2013-05-28 20:14:00,68.5,67.6,29.87,ENE,74,0.0,1.0,97,0.00,,,1.00,Wunderground v.1.15,2013-05-29 00:14:00,
2013-05-28 20:19:00,68.4,67.5,29.87,ENE,74,0.0,1.0,97,0.00,,,1.00,Wunderground v.1.15,2013-05-29 00:19:00,
2013-05-28 20:24:00,68.4,67.5,29.86,ENE,74,0.0,2.0,97,0.00,,,1.00,Wunderground v.1.15,2013-05-29 00:24:00,
2013-05-28 20:29:00,68.3,67.4,29.86,SSW,194,2.0,2.0,97,0.00,,,1.00,Wunderground v.1.15,2013-05-29 00:29:00,
2013-05-28 20:34:00,68.2,67.3,29.87,SSW,198,0.0,2.0,97,0.00,,,1.00,Wunderground v.1.15,2013-05-29 00:34:00,
2013-05-28 20:39:00,68.2,67.3,29.87,SSW,198,0.0,2.0,97,0.00,,,1.00,Wunderground v.1.15,2013-05-29 00:39:00,
2013-05-28 20:44:00,68.3,67.4,29.86,SSW,198,1.0,2.0,97,0.00,,,1.00,Wunderground v.1.15,2013-05-29 00:44:00,
2013-05-28 20:48:00,68.1,67.2,29.86,SSW,198,0.0,2.0,97,0.00,,,1.00,Wunderground v.1.15,2013-05-29 00:48:00,
2013-05-28 20:53:00,68.0,67.1,29.86,SSW,198,0.0,1.0,97,0.00,,,1.00,Wunderground v.1.15,2013-05-29 00:53:00,
2013-05-28 20:58:00,68.1,67.2,29.86,SSW,198,0.0,1.0,97,0.00,,,1.00,Wunderground v.1.15,2013-05-29 00:58:00,
2013-05-28 21:03:00,68.1,67.2,29.86,SSW,198,0.0,2.0,97,0.00,,,1.00,Wunderground v.1.15,2013-05-29 01:03:00,
2013-05-28 21:08:00,68.1,67.2,29.86,SSW,198,0.0,2.0,97,0.00,,,1.00,Wunderground v.1.15,2013-05-29 01:08:00,
2013-05-28 21:13:00,67.9,67.3,29.86,South,172,0.0,1.0,98,0.00,,,1.00,Wunderground v.1.15,2013-05-29 01:13:00,
2013-05-28 21:18:00,67.9,67.3,29.87,South,172,0.0,1.0,98,0.00,,,1.00,Wunderground v.1.15,2013-05-29 01:18:00,
2013-05-28 21:23:00,68.1,67.5,29.87,South,172,0.0,1.0,98,0.00,,,1.00,Wunderground v.1.15,2013-05-29 01:23:00,
2013-05-28 21:28:00,68.3,67.7,29.86,South,172,1.0,2.0,98,0.00,,,1.00,Wunderground v.1.15,2013-05-29 01:28:00,
2013-05-28 21:33:00,68.2,67.6,29.85,South,172,1.0,2.0,98,0.00,,,1.00,Wunderground v.1.15,2013-05-29 01:33:00,
2013-05-28 21:38:00,68.2,67.6,29.85,South,172,0.0,2.0,98,0.00,,,1.00,Wunderground v.1.15,2013-05-29 01:38:00,
2013-05-28 21:43:00,68.3,67.7,29.85,South,172,0.0,2.0,98,0.00,,,1.00,Wunderground v.1.15,2013-05-29 01:43:00,
2013-05-28 21:48:00,68.3,67.7,29.86,South,172,0.0,2.0,98,0.00,,,1.00,Wunderground v.1.15,2013-05-29 01:48:00,
2013-05-28 21:53:00,68.4,67.8,29.86,South,172,0.0,1.0,98,0.00,,,1.00,Wunderground v.1.15,2013-05-29 01:53:00,
2013-05-28 21:58:00,68.3,67.7,29.86,South,172,0.0,1.0,98,0.00,,,1.00,Wunderground v.1.15,2013-05-29 01:58:00,
2013-05-28 22:03:00,68.5,67.9,29.86,South,169,0.0,3.0,98,0.00,,,1.00,Wunderground v.1.15,2013-05-29 02:03:00,
2013-05-28 22:08:00,68.6,68.0,29.86,South,169,0.0,3.0,98,0.00,,,1.00,Wunderground v.1.15,2013-05-29 02:08:00,
2013-05-28 22:13:00,68.6,68.0,29.86,South,173,0.0,2.0,98,0.00,,,1.00,Wunderground v.1.15,2013-05-29 02:13:00,
2013-05-28 22:18:00,68.5,67.9,29.86,SSE,154,0.0,2.0,98,0.00,,,1.00,Wunderground v.1.15,2013-05-29 02:18:00,
2013-05-28 22:23:00,68.5,67.9,29.86,SSW,206,0.0,5.0,98,0.00,,,1.00,Wunderground v.1.15,2013-05-29 02:23:00,
2013-05-28 22:28:00,68.6,68.0,29.87,South,171,0.0,5.0,98,0.00,,,1.00,Wunderground v.1.15,2013-05-29 02:28:00,
2013-05-28 22:33:00,68.6,68.0,29.86,SSW,208,1.0,2.0,98,0.00,,,1.00,Wunderground v.1.15,2013-05-29 02:33:00,
2013-05-28 22:38:00,68.6,68.0,29.86,SSW,207,1.0,2.0,98,0.00,,,1.00,Wunderground v.1.15,2013-05-29 02:38:00,
2013-05-28 22:43:00,68.6,68.0,29.86,SSW,211,1.0,3.0,98,0.00,,,1.00,Wunderground v.1.15,2013-05-29 02:43:00,
2013-05-28 22:48:00,68.6,68.0,29.86,SE,129,0.0,3.0,98,0.00,,,1.00,Wunderground v.1.15,2013-05-29 02:48:00,
2013-05-28 22:53:00,68.7,68.1,29.86,ESE,116,1.0,3.0,98,0.00,,,1.00,Wunderground v.1.15,2013-05-29 02:53:00,
2013-05-28 22:58:00,68.7,68.1,29.86,South,170,0.0,4.0,98,0.00,,,1.00,Wunderground v.1.15,2013-05-29 02:58:00,
2013-05-28 23:03:00,68.7,68.1,29.85,WSW,248,2.0,3.0,98,0.00,,,1.00,Wunderground v.1.15,2013-05-29 03:03:00,
2013-05-28 23:08:00,68.7,68.1,29.85,South,189,0.0,4.0,98,0.00,,,1.00,Wunderground v.1.15,2013-05-29 03:08:00,
2013-05-28 23:13:00,68.7,68.1,29.85,ESE,110,0.0,1.0,98,0.00,,,1.00,Wunderground v.1.15,2013-05-29 03:13:00,
2013-05-28 23:18:00,68.8,68.2,29.85,SSE,161,0.0,2.0,98,0.00,,,1.00,Wunderground v.1.15,2013-05-29 03:18:00,
2013-05-28 23:23:00,68.8,68.2,29.85,East,89,1.0,2.0,98,0.00,,,1.00,Wunderground v.1.15,2013-05-29 03:23:00,
2013-05-28 23:28:00,68.9,68.0,29.85,South,189,0.0,3.0,97,0.00,,,1.00,Wunderground v.1.15,2013-05-29 03:28:00,
2013-05-28 23:33:00,68.9,68.0,29.85,SSW,193,0.0,3.0,97,0.00,,,1.00,Wunderground v.1.15,2013-05-29 03:33:00,
2013-05-28 23:38:00,69.0,68.1,29.85,SSW,207,5.0,10.0,97,0.00,,,1.00,Wunderground v.1.15,2013-05-29 03:38:00,
2013-05-28 23:43:00,69.2,68.0,29.85,South,184,2.0,5.0,96,0.00,,,1.00,Wunderground v.1.15,2013-05-29 03:43:00,
2013-05-28 23:48:00,69.4,67.9,29.86,ENE,73,0.0,5.0,95,0.00,,,1.00,Wunderground v.1.15,2013-05-29 03:48:00,
2013-05-28 23:53:00,69.5,68.0,29.86,SE,140,1.0,4.0,95,0.00,,,1.00,Wunderground v.1.15,2013-05-29 03:53:00,
2013-05-28 23:58:00,69.8,68.0,29.85,South,190,0.0,7.0,94,0.00,,,1.00,Wunderground v.1.15,2013-05-29 03:58:00,